SCP
0 0 0 0 0 0 0 0 0 0 0 0 0 0 -0 -0 -0 -0 0 0 0 0 0 0 0 0 0 0 0 0 0 0 0 0 0 0 0 0 0 0 0 0 0
0 0 0 0 0 0 0 0 0 0 0 0 0 0 0 0 -0 -0 -0 0 0 0 0 0 0 0 0 0 0 0 0 0 0 0 0 0 0 0 0 0 0 0 0
0 0 0 0 0 0 0 0 0 0 0 0 0 0 0 0 0 -0 -0 0 0 0 0 0 0 0 0 0 0 0 0 0 0 0 0 0 0 0 0 0 0 0 0
0 0 0 0 0 0 0 0 0 0 0 0 0 0 0 0 0 0 0 0 0 0 0 0 0 0 0 0 0 0 0 0 0 0 0 0 0 0 0 0 0 0 0
0 0 0 0 0 0 0 0 0 0 0 0 0 0 0 0 0 0 0 0 -0 0 0 0 0 0 0 0 0 0 0 0 0 0 0 0 0 0 0 0 0 0 0
0 0 0 0 0 0 0 0 0 0 0 0 0 0 0 0 0 0 0 0 0 -0 0 0 0 0 0 0 0 0 0 0 0 0 0 0 0 0 0 0 0 0 0
0 0 0 0 0 0 0 0 0 0 0 0 0 0 0 0 0 0 0 0 -0 -0 0 0 0 0 0 0 0 0 0 0 0 0 0 0 0 0 0 0 0 0 0
0 0 0 0 0 0 0 0 0 0 0 0 0 0 0 0 0 0 0 0 -0 -0 -0 0 0 0 0 0 0 0 0 0 0 0 0 0 0 0 0 0 0 0 0
0 0 0 0 0 0 0 0 0 0 0 0 0 0 0 0 0 0 0 0 -0 -0 0 0 0 0 0 0 0 0 0 0 0 0 0 0 0 0 0 0 0 0 0
0 0 0 0 0 0 0 0 0 0 0 0 0 0 0 0 0 0 0 -0 -0 -0 -0 0 0 0 0 0 0 0 0 0 0 0 0 0 0 0 0 0 0 0 0
0 0 0 0 0 0 0 0 0 0 0 0 0 0 0 0 0 0 0 0 -0 -0 -0 -0 0 0 0 0 0 0 0 0 0 0 0 0 0 0 0 0 0 0 0
0 0 0 0 0 0 0 0 0 0 0 0 0 0 0 0 0 0 0 0 0 -0 -0 -0 0 0 0 0 0 0 0 0 0 0 0 0 0 0 0 0 0 0 0
0 0 0 0 0 0 0 0 0 0 0 0 0 0 0 0 0 0 0 0 0 0 -0 0 0 0 0 0 0 0 0 0 0 0 0 0 0 0 0 0 0 0 0
0 0 0 0 0 0 0 0 0 0 0 0 0 0 0 0 0 0 0 0 0 0 0 -0 0 0 0 0 0 0 0 0 0 0 0 0 0 0 0 0 0 0 0
0 0 0 0 0 0 0 0 0 0 0 0 0 0 0 0 0 0 0 -0 0 0 -0 -0 0 0 0 0 0 0 0 0 0 0 0 0 0 0 0 0 0 0 0
0 0 0 0 0 0 0 0 0 0 0 0 0 0 0 0 0 0 0 0 0 0 -0 -0 0 0 0 0 0 0 0 0 0 0 0 0 0 0 0 0 0 0 0
0 0 0 0 0 0 0 0 0 0 0 0 0 0 0 0 0 0 0 0 0 0 -0 0 0 0 0 0 0 0 0 0 0 0 0 0 0 0 0 0 0 0 0
0 0 0 0 0 0 0 0 0 0 0 0 0 0 0 0 0 0 0 0 0 0 -0 0 0 0 0 0 0 0 0 0 0 0 0 0 0 0 0 0 0 0 0
0 0 0 0 0 0 0 0 0 0 0 0 0 0 0 0 0 0 0 -0 -0 0 0 0 0 0 0 0 0 0 0 0 0 0 0 0 0 0 0 0 0 0 0
0 0 0 0 0 0 0 0 0 0 0 0 0 0 0 0 0 0 -0 -0 -0 0 0 0 0 0 0 0 0 0 0 0 0 0 0 0 0 0 0 0 0 0 0
0 0 0 0 0 0 0 0 0 0 0 0 0 0 -0 0 0 -0 0 0 0 0 0 0 0 0 0 0 0 0 0 0 0 0 0 0 0 0 0 0 0 0 0
0 0 0 0 0 0 0 0 0 0 0 0 0 0 -0 0 0 0 0 0 0 0 0 0 0 0 0 0 0 0 0 0 0 0 0 0 0 0 0 0 0 0 0
0 0 0 0 0 0 0 0 0 0 0 0 0 0 0 0 0 0 0 0 0 0 0 0 0 0 0 0 0 0 0 0 0 0 0 0 0 0 0 0 0 0 0
0 0 0 0 0 0 0 0 0 0 0 0 0 0 0 0 0 0 0 0 0 0 0 0 0 0 0 0 0 0 0 0 0 0 0 0 0 0 0 0 0 0 0
0 0 0 0 0 0 0 0 0 0 0 0 0 0 0 0 0 0 0 0 0 0 0 0 0 0 0 0 0 0 0 0 0 0 0 0 0 0 0 0 0 0 0
0 0 0 0 0 0 0 0 0 0 0 0 0 0 0 0 0 0 0 0 0 0 0 0 0 0 0 0 0 0 0 0 0 0 0 0 0 0 0 0 0 0 0
Wind_Speed_500mb
42 46 49 49 48 47 48 49 52 55 60 64 68 72 75 78 82 81 81 86 85 80 72 67 68 91 102 109 106 105 95 102 94 69 81 82 85 72 67 67 65 54 65
44 48 51 51 49 47 49 52 54 56 59 63 66 68 71 73 76 81 80 84 91 86 80 65 61 64 86 87 109 115 105 100 101 90 85 85 86 81 70 66 53 50 51
47 51 52 51 49 48 51 52 55 59 62 63 65 67 69 72 75 76 75 78 83 84 79 70 57 55 54 81 102 105 92 104 106 97 96 94 82 80 73 68 65 52 48
49 54 55 52 50 49 51 53 56 61 67 68 66 66 68 70 71 73 75 75 76 80 77 69 55 45 48 45 76 107 96 101 102 97 96 97 92 87 85 75 80 74 59
52 56 54 52 53 51 51 54 57 61 65 70 70 67 67 69 72 72 73 74 73 75 78 72 62 45 40 41 42 66 90 106 95 93 94 92 91 85 95 86 87 77 69
54 58 56 57 57 53 53 56 59 64 68 71 71 70 71 71 69 68 67 71 69 68 73 76 68 59 45 35 40 52 58 84 87 92 89 87 92 94 90 89 89 83 64
61 60 59 61 57 54 56 58 61 66 70 72 74 74 72 69 68 66 64 65 66 64 62 68 69 65 60 39 37 41 49 51 76 83 86 87 90 97 100 101 94 86 80
62 59 61 59 56 56 57 59 62 67 71 75 76 77 74 67 65 63 61 62 64 59 58 57 64 64 63 53 45 32 35 47 51 59 68 84 85 102 98 92 95 77 62
62 58 59 58 57 57 58 60 64 69 72 74 74 71 71 68 62 61 58 61 63 63 57 52 53 58 56 54 47 39 33 37 43 43 48 50 67 80 86 74 79 72 62
62 56 57 57 55 56 58 61 64 69 72 72 69 65 63 65 59 58 52 58 64 62 64 56 46 51 49 47 49 44 41 29 25 39 41 41 45 64 80 82 80 84 73
56 54 54 54 53 53 57 61 67 71 69 66 64 59 55 57 56 51 46 52 54 67 67 67 57 47 49 43 43 47 43 40 24 21 33 42 45 51 67 77 77 77 76
54 53 52 50 50 52 58 62 65 64 65 63 61 59 52 52 50 47 45 43 49 56 64 65 60 61 43 43 41 43 42 36 24 20 17 27 39 46 46 55 60 64 66
47 46 44 45 48 54 59 61 59 55 54 55 55 58 59 53 52 48 47 45 48 52 57 56 60 61 48 38 33 36 38 32 24 17 19 20 27 40 51 54 55 60 60
42 40 42 47 50 52 52 51 52 49 49 49 52 57 61 60 58 53 60 61 60 60 64 69 66 51 36 31 27 26 26 24 22 16 18 21 21 27 41 46 53 57 59
42 42 45 49 51 48 45 43 44 41 42 44 48 52 56 59 54 51 51 55 56 54 61 53 45 38 30 27 23 22 23 20 13 14 16 16 19 18 28 38 44 53 61
43 44 47 48 44 42 43 38 30 37 39 41 39 38 44 43 45 47 46 46 48 46 47 48 44 41 37 32 29 24 22 22 19 13 8 14 14 15 18 26 40 55 61
44 46 44 44 43 41 39 39 45 31 34 36 35 36 38 41 41 41 44 41 48 45 42 39 39 38 38 35 32 29 25 20 22 20 14 9 13 12 18 24 33 46 56
45 43 42 40 41 40 40 37 40 46 47 33 30 36 36 41 43 40 38 41 39 32 36 37 35 35 35 35 32 29 27 19 15 17 15 11 8 12 17 22 22 35 53
43 40 39 38 39 41 39 38 39 36 41 43 39 33 36 38 40 36 35 38 41 41 41 40 37 33 31 32 32 29 27 24 17 13 13 10 5 11 13 14 18 27 41
42 39 39 38 40 40 38 38 34 34 38 40 40 40 42 44 39 36 36 37 37 38 39 42 40 37 32 30 29 30 27 24 19 15 11 10 8 5 11 14 15 22 33
41 38 38 40 38 35 34 32 34 37 38 40 42 39 41 44 44 44 42 38 37 38 38 41 43 40 36 33 30 28 26 24 21 18 18 12 10 6 7 14 17 14 22
39 36 38 38 36 35 32 34 35 37 38 42 43 41 38 41 41 42 41 39 36 36 37 42 42 43 39 35 33 30 27 26 22 20 20 20 12 8 7 10 15 16 18
38 37 37 37 36 35 35 34 36 39 40 42 44 46 44 44 44 42 41 39 38 37 36 38 41 40 38 34 31 32 29 25 24 23 21 19 22 16 11 8 11 17 22
40 39 39 36 34 35 37 36 38 40 41 43 45 47 48 48 48 45 43 39 39 38 35 36 38 39 39 36 31 29 29 27 25 24 22 21 22 24 20 14 12 15 20
43 40 40 38 34 36 38 39 41 42 43 45 47 50 51 50 50 47 44 41 39 40 38 35 35 37 38 38 35 31 28 28 26 25 24 23 22 24 26 24 19 16 20
48 41 39 39 38 39 39 41 45 45 47 48 51 53 54 54 52 50 47 44 42 41 40 38 36 36 38 39 39 35 31 29 28 26 26 25 24 22 26 28 27 22 20
Wind_Direction_500mb
327 333 333 331 331 334 337 340 342 343 343 343 344 344 346 347 349 348 346 344 339 335 316 297 288 254 254 245 241 247 247 240 239 241 243 241 235 229 235 234 234 225 225
317 325 326 325 324 326 330 333 337 339 340 338 338 338 340 342 343 345 348 347 344 340 333 312 293 282 263 248 242 239 241 249 240 235 244 229 230 226 224 228 217 228 227
310 318 319 319 318 319 324 328 332 335 337 337 334 334 335 337 338 339 342 346 345 343 340 332 323 290 275 255 241 240 241 243 242 238 234 236 229 224 217 217 209 219 217
304 314 315 314 313 314 318 323 327 331 334 335 334 331 331 331 333 333 335 338 344 342 343 337 343 321 303 281 251 239 252 243 244 236 238 232 223 220 216 212 207 208 215
302 310 309 309 309 309 312 316 321 325 329 331 332 330 329 329 330 331 329 331 337 342 340 343 337 345 305 278 259 248 250 240 231 232 231 227 221 214 211 214 211 210 215
299 306 304 304 305 305 308 313 317 321 325 327 328 329 328 328 327 326 325 325 330 335 340 340 340 338 337 305 275 244 243 250 241 231 228 227 226 217 212 212 209 205 203
300 300 299 301 302 303 306 310 315 319 322 325 325 326 326 327 325 324 324 321 324 328 334 338 341 341 336 330 299 269 246 241 249 245 233 224 226 221 215 206 205 204 207
299 298 298 300 300 301 304 309 313 317 320 323 323 324 325 327 324 324 326 322 320 323 326 332 335 338 342 343 331 312 282 257 246 242 247 242 237 230 218 217 205 204 204
300 300 297 297 297 299 303 307 313 315 318 320 322 323 323 325 325 324 327 324 320 320 320 326 331 335 346 341 341 332 315 273 261 241 238 238 236 229 220 207 199 202 204
297 295 292 293 295 298 302 308 312 315 317 319 320 321 322 322 326 325 331 322 320 323 319 319 325 330 336 346 343 338 324 317 297 254 241 222 219 221 209 212 207 198 206
291 289 288 291 293 296 302 308 312 315 317 317 317 321 323 324 329 328 333 326 333 324 321 320 321 324 328 340 336 334 321 312 293 284 248 233 216 203 206 205 210 216 214
288 286 288 290 292 297 302 308 310 312 314 317 320 322 327 327 334 336 335 333 330 325 320 321 324 321 314 324 335 331 325 312 292 285 265 231 225 220 207 203 199 207 214
283 284 286 289 294 299 304 307 309 313 315 318 322 324 327 333 335 341 340 339 332 326 326 323 316 316 310 307 326 331 326 318 304 310 295 260 234 226 216 204 202 205 205
280 283 287 291 295 299 302 306 309 315 316 320 324 327 328 330 333 340 344 336 333 335 333 317 317 317 312 303 309 327 333 331 324 294 286 283 246 228 224 215 212 210 207
279 284 288 291 297 301 304 309 311 313 316 320 315 317 317 321 331 327 327 326 329 328 314 325 333 334 325 311 310 324 337 344 320 276 255 260 266 240 231 218 215 215 212
281 287 292 295 299 305 307 306 304 308 311 311 310 309 311 311 318 322 322 325 318 326 327 335 341 341 339 332 324 319 334 340 350 327 307 244 266 278 257 228 222 219 216
283 285 290 296 301 303 302 305 310 306 308 312 316 317 316 315 317 321 323 326 312 323 327 336 342 342 341 338 329 323 322 329 341 351 344 329 244 261 267 243 230 224 220
282 287 291 293 295 296 297 303 307 313 318 320 319 324 323 316 318 322 325 321 327 332 334 340 341 341 340 337 332 323 317 319 321 345 358 339 294 252 283 269 251 237 228
279 281 284 287 289 289 293 299 302 306 308 315 320 322 319 314 316 319 323 324 327 333 335 337 338 337 336 333 333 330 321 320 315 326 344 354 322 247 238 283 270 251 237
277 278 281 283 283 286 292 295 298 301 306 313 317 323 321 318 320 325 327 324 321 324 329 331 335 334 330 329 332 330 328 319 314 299 302 332 343 294 244 241 277 256 240
271 271 276 279 280 281 284 287 293 300 306 310 313 319 320 317 321 321 323 323 320 320 325 329 333 332 329 324 322 324 327 328 318 303 284 290 319 310 259 242 238 268 246
265 269 276 278 279 280 281 288 294 298 304 307 311 314 314 312 313 314 315 319 317 316 318 321 328 332 329 323 317 317 322 324 322 307 292 276 272 291 274 239 228 227 251
264 270 271 274 276 278 283 287 291 296 301 304 309 312 314 314 313 312 313 314 315 314 314 316 320 327 327 322 314 308 310 315 311 306 296 277 266 254 253 245 224 219 225
269 269 270 270 273 277 280 285 291 295 299 303 307 309 310 311 310 311 312 311 310 312 311 311 316 320 323 321 313 305 299 299 300 301 299 288 269 260 243 235 227 213 214
264 265 268 271 272 274 280 285 288 293 297 301 305 306 307 308 307 308 309 308 306 307 308 307 311 314 316 317 312 304 296 289 289 291 290 288 277 260 250 232 224 215 211
265 264 269 273 274 274 278 283 288 293 298 301 303 304 305 306 306 307 308 307 304 301 303 303 304 309 310 310 308 301 293 287 280 278 278 279 278 268 253 241 227 217 211
Wind_Speed_850mb
42 46 49 49 48 47 48 49 52 55 60 64 68 72 75 78 82 81 81 86 85 80 72 67 68 91 102 109 106 105 95 102 94 69 81 82 85 72 67 67 65 54 65
44 48 51 51 49 47 49 52 54 56 59 63 66 68 71 73 76 81 80 84 91 86 80 65 61 64 86 87 109 115 105 100 101 90 85 85 86 81 70 66 53 50 51
47 51 52 51 49 48 51 52 55 59 62 63 65 67 69 72 75 76 75 78 83 84 79 70 57 55 54 81 102 105 92 104 106 97 96 94 82 80 73 68 65 52 48
49 54 55 52 50 49 51 53 56 61 67 68 66 66 68 70 71 73 75 75 76 80 77 69 55 45 48 45 76 107 96 101 102 97 96 97 92 87 85 75 80 74 59
52 56 54 52 53 51 51 54 57 61 65 70 70 67 67 69 72 72 73 74 73 75 78 72 62 45 40 41 42 66 90 106 95 93 94 92 91 85 95 86 87 77 69
54 58 56 57 57 53 53 56 59 64 68 71 71 70 71 71 69 68 67 71 69 68 73 76 68 59 45 35 40 52 58 84 87 92 89 87 92 94 90 89 89 83 64
61 60 59 61 57 54 56 58 61 66 70 72 74 74 72 69 68 66 64 65 66 64 62 68 69 65 60 39 37 41 49 51 76 83 86 87 90 97 100 101 94 86 80
62 59 61 59 56 56 57 59 62 67 71 75 76 77 74 67 65 63 61 62 64 59 58 57 64 64 63 53 45 32 35 47 51 59 68 84 85 102 98 92 95 77 62
62 58 59 58 57 57 58 60 64 69 72 74 74 71 71 68 62 61 58 61 63 63 57 52 53 58 56 54 47 39 33 37 43 43 48 50 67 80 86 74 79 72 62
62 56 57 57 55 56 58 61 64 69 72 72 69 65 63 65 59 58 52 58 64 62 64 56 46 51 49 47 49 44 41 29 25 39 41 41 45 64 80 82 80 84 73
56 54 54 54 53 53 57 61 67 71 69 66 64 59 55 57 56 51 46 52 54 67 67 67 57 47 49 43 43 47 43 40 24 21 33 42 45 51 67 77 77 77 76
54 53 52 50 50 52 58 62 65 64 65 63 61 59 52 52 50 47 45 43 49 56 64 65 60 61 43 43 41 43 42 36 24 20 17 27 39 46 46 55 60 64 66
47 46 44 45 48 54 59 61 59 55 54 55 55 58 59 53 52 48 47 45 48 52 57 56 60 61 48 38 33 36 38 32 24 17 19 20 27 40 51 54 55 60 60
42 40 42 47 50 52 52 51 52 49 49 49 52 57 61 60 58 53 60 61 60 60 64 69 66 51 36 31 27 26 26 24 22 16 18 21 21 27 41 46 53 57 59
42 42 45 49 51 48 45 43 44 41 42 44 48 52 56 59 54 51 51 55 56 54 61 53 45 38 30 27 23 22 23 20 13 14 16 16 19 18 28 38 44 53 61
43 44 47 48 44 42 43 38 30 37 39 41 39 38 44 43 45 47 46 46 48 46 47 48 44 41 37 32 29 24 22 22 19 13 8 14 14 15 18 26 40 55 61
44 46 44 44 43 41 39 39 45 31 34 36 35 36 38 41 41 41 44 41 48 45 42 39 39 38 38 35 32 29 25 20 22 20 14 9 13 12 18 24 33 46 56
45 43 42 40 41 40 40 37 40 46 47 33 30 36 36 41 43 40 38 41 39 32 36 37 35 35 35 35 32 29 27 19 15 17 15 11 8 12 17 22 22 35 53
43 40 39 38 39 41 39 38 39 36 41 43 39 33 36 38 40 36 35 38 41 41 41 40 37 33 31 32 32 29 27 24 17 13 13 10 5 11 13 14 18 27 41
42 39 39 38 40 40 38 38 34 34 38 40 40 40 42 44 39 36 36 37 37 38 39 42 40 37 32 30 29 30 27 24 19 15 11 10 8 5 11 14 15 22 33
41 38 38 40 38 35 34 32 34 37 38 40 42 39 41 44 44 44 42 38 37 38 38 41 43 40 36 33 30 28 26 24 21 18 18 12 10 6 7 14 17 14 22
39 36 38 38 36 35 32 34 35 37 38 42 43 41 38 41 41 42 41 39 36 36 37 42 42 43 39 35 33 30 27 26 22 20 20 20 12 8 7 10 15 16 18
38 37 37 37 36 35 35 34 36 39 40 42 44 46 44 44 44 42 41 39 38 37 36 38 41 40 38 34 31 32 29 25 24 23 21 19 22 16 11 8 11 17 22
40 39 39 36 34 35 37 36 38 40 41 43 45 47 48 48 48 45 43 39 39 38 35 36 38 39 39 36 31 29 29 27 25 24 22 21 22 24 20 14 12 15 20
43 40 40 38 34 36 38 39 41 42 43 45 47 50 51 50 50 47 44 41 39 40 38 35 35 37 38 38 35 31 28 28 26 25 24 23 22 24 26 24 19 16 20
48 41 39 39 38 39 39 41 45 45 47 48 51 53 54 54 52 50 47 44 42 41 40 38 36 36 38 39 39 35 31 29 28 26 26 25 24 22 26 28 27 22 20
Wind_Direction_850mb
327 333 333 331 331 334 337 340 342 343 343 343 344 344 346 347 349 348 346 344 339 335 316 297 288 254 254 245 241 247 247 240 239 241 243 241 235 229 235 234 234 225 225
317 325 326 325 324 326 330 333 337 339 340 338 338 338 340 342 343 345 348 347 344 340 333 312 293 282 263 248 242 239 241 249 240 235 244 229 230 226 224 228 217 228 227
310 318 319 319 318 319 324 328 332 335 337 337 334 334 335 337 338 339 342 346 345 343 340 332 323 290 275 255 241 240 241 243 242 238 234 236 229 224 217 217 209 219 217
304 314 315 314 313 314 318 323 327 331 334 335 334 331 331 331 333 333 335 338 344 342 343 337 343 321 303 281 251 239 252 243 244 236 238 232 223 220 216 212 207 208 215
302 310 309 309 309 309 312 316 321 325 329 331 332 330 329 329 330 331 329 331 337 342 340 343 337 345 305 278 259 248 250 240 231 232 231 227 221 214 211 214 211 210 215
299 306 304 304 305 305 308 313 317 321 325 327 328 329 328 328 327 326 325 325 330 335 340 340 340 338 337 305 275 244 243 250 241 231 228 227 226 217 212 212 209 205 203
300 300 299 301 302 303 306 310 315 319 322 325 325 326 326 327 325 324 324 321 324 328 334 338 341 341 336 330 299 269 246 241 249 245 233 224 226 221 215 206 205 204 207
299 298 298 300 300 301 304 309 313 317 320 323 323 324 325 327 324 324 326 322 320 323 326 332 335 338 342 343 331 312 282 257 246 242 247 242 237 230 218 217 205 204 204
300 300 297 297 297 299 303 307 313 315 318 320 322 323 323 325 325 324 327 324 320 320 320 326 331 335 346 341 341 332 315 273 261 241 238 238 236 229 220 207 199 202 204
297 295 292 293 295 298 302 308 312 315 317 319 320 321 322 322 326 325 331 322 320 323 319 319 325 330 336 346 343 338 324 317 297 254 241 222 219 221 209 212 207 198 206
291 289 288 291 293 296 302 308 312 315 317 317 317 321 323 324 329 328 333 326 333 324 321 320 321 324 328 340 336 334 321 312 293 284 248 233 216 203 206 205 210 216 214
288 286 288 290 292 297 302 308 310 312 314 317 320 322 327 327 334 336 335 333 330 325 320 321 324 321 314 324 335 331 325 312 292 285 265 231 225 220 207 203 199 207 214
283 284 286 289 294 299 304 307 309 313 315 318 322 324 327 333 335 341 340 339 332 326 326 323 316 316 310 307 326 331 326 318 304 310 295 260 234 226 216 204 202 205 205
280 283 287 291 295 299 302 306 309 315 316 320 324 327 328 330 333 340 344 336 333 335 333 317 317 317 312 303 309 327 333 331 324 294 286 283 246 228 224 215 212 210 207
279 284 288 291 297 301 304 309 311 313 316 320 315 317 317 321 331 327 327 326 329 328 314 325 333 334 325 311 310 324 337 344 320 276 255 260 266 240 231 218 215 215 212
281 287 292 295 299 305 307 306 304 308 311 311 310 309 311 311 318 322 322 325 318 326 327 335 341 341 339 332 324 319 334 340 350 327 307 244 266 278 257 228 222 219 216
283 285 290 296 301 303 302 305 310 306 308 312 316 317 316 315 317 321 323 326 312 323 327 336 342 342 341 338 329 323 322 329 341 351 344 329 244 261 267 243 230 224 220
282 287 291 293 295 296 297 303 307 313 318 320 319 324 323 316 318 322 325 321 327 332 334 340 341 341 340 337 332 323 317 319 321 345 358 339 294 252 283 269 251 237 228
279 281 284 287 289 289 293 299 302 306 308 315 320 322 319 314 316 319 323 324 327 333 335 337 338 337 336 333 333 330 321 320 315 326 344 354 322 247 238 283 270 251 237
277 278 281 283 283 286 292 295 298 301 306 313 317 323 321 318 320 325 327 324 321 324 329 331 335 334 330 329 332 330 328 319 314 299 302 332 343 294 244 241 277 256 240
271 271 276 279 280 281 284 287 293 300 306 310 313 319 320 317 321 321 323 323 320 320 325 329 333 332 329 324 322 324 327 328 318 303 284 290 319 310 259 242 238 268 246
265 269 276 278 279 280 281 288 294 298 304 307 311 314 314 312 313 314 315 319 317 316 318 321 328 332 329 323 317 317 322 324 322 307 292 276 272 291 274 239 228 227 251
264 270 271 274 276 278 283 287 291 296 301 304 309 312 314 314 313 312 313 314 315 314 314 316 320 327 327 322 314 308 310 315 311 306 296 277 266 254 253 245 224 219 225
269 269 270 270 273 277 280 285 291 295 299 303 307 309 310 311 310 311 312 311 310 312 311 311 316 320 323 321 313 305 299 299 300 301 299 288 269 260 243 235 227 213 214
264 265 268 271 272 274 280 285 288 293 297 301 305 306 307 308 307 308 309 308 306 307 308 307 311 314 316 317 312 304 296 289 289 291 290 288 277 260 250 232 224 215 211
265 264 269 273 274 274 278 283 288 293 298 301 303 304 305 306 306 307 308 307 304 301 303 303 304 309 310 310 308 301 293 287 280 278 278 279 278 268 253 241 227 217 211